This demonstration page uses our WeatherBlox Daily Observations layout. Learn more.

Left ArrowRight Arrow

Hourly Observations for November 15, 2021

Temp ( °F °C ) Dew Point ( °F °C ) Humidity (%) Winds ( mph kmh ) Pressure ( in mb ) Visibility ( mi km ) Precip ( " mm )
12:56 am 00:56 Clear 41 5 28 -2.2 60 60 SW 10 17 29.86 1011 10 16 0.00 0.00
1:56 am 01:56 Clear 44 6.7 29 -1.7 55 55 SW 12 19 29.84 1011 10 16 0.00 0.00
2:56 am 02:56 Clear 45 7.2 30 -1.1 56 56 WSW 9 15 29.84 1011 10 16 0.00 0.00
3:56 am 03:56 Clear 46 7.8 32 0 58 58 WSW 8 13 29.84 1010 10 16 0.00 0.00
4:56 am 04:56 Clear 46 7.8 34 1.1 63 63 WSW 8 13 29.85 1011 10 16 0.00 0.00
5:56 am 05:56 Clear 49 9.4 36 2.2 61 61 W 9 15 29.87 1012 10 16 0.00 0.00
6:56 am 06:56 Clear 50 10 37 2.8 61 61 W 10 17 29.88 1012 10 16 0.00 0.00
7:56 am 07:56 Sunny 49 9.4 37 2.8 64 64 WNW 12 19 29.90 1013 10 16 0.00 0.00
8:56 am 08:56 Sunny 55 12.8 39 3.9 55 55 WNW 14 22 29.91 1013 10 16 0.00 0.00
9:56 am 09:56 Sunny 62 16.7 39 3.9 43 43 NW 14 22 29.91 1013 10 16 0.00 0.00
10:56 am 10:56 Sunny 66 18.9 40 4.4 39 39 NW 12 19 29.93 1014 10 16 0.00 0.00
11:56 am 11:56 Sunny 70 21.1 40 4.4 34 34 NW 12 19 29.92 1013 10 16 0.00 0.00
12:56 pm 12:56 Sunny 71 21.7 40 4.4 32 32 WNW 8 13 29.91 1013 10 16 0.00 0.00
1:56 pm 13:56 Sunny 74 23.3 40 4.4 29 29 VRB 5 7 29.89 1012 10 16 0.00 0.00
2:56 pm 14:56 Sunny 74 23.3 40 4.4 29 29 WSW 8 13 29.88 1012 10 16 0.00 0.00
3:56 pm 15:56 Sunny 73 22.8 41 5 32 32 SW 7 11 29.88 1012 10 16 0.00 0.00
4:56 pm 16:56 Sunny 70 21.1 40 4.4 34 34 WSW 5 7 29.89 1012 10 16 0.00 0.00
5:56 pm 17:56 Clear 59 15 40 4.4 49 49 N 7 11 29.91 1013 10 16 0.00 0.00
6:56 pm 18:56 Clear 58 14.4 37 2.8 46 46 Calm 29.91 1013 10 16 0.00 0.00
7:56 pm 19:56 Clear 54 12.2 37 2.8 53 53 SSW 6 9 29.89 1012 10 16 0.00 0.00
8:56 pm 20:56 Clear 50 10 35 1.7 57 57 SSW 6 9 29.87 1012 10 16 0.00 0.00
9:56 pm 21:56 Clear 50 10 35 1.7 57 57 SSW 6 9 29.86 1011 10 16 0.00 0.00
10:56 pm 22:56 Clear 48 8.9 34 1.1 58 58 SW 5 7 29.84 1011 10 16 0.00 0.00
11:56 pm 23:56 Clear 49 9.4 35 1.7 59 59 SW 5 7 29.82 1010 10 16 0.00 0.00

Powered by AerisWeather